Location: Unspecified
(35.7250°N, 0.0000°E)
Time: 19:27:29
(UTC+00:00)

Courier 1B Rocket - Pass Details

Date: 18 August 2020
Orbit: 920 x 1202 km, 28.2° (Epoch: 01 October)

Event Time Altitude Azimuth Distance (km) Brightness Sun altitude
Exits shadow 04:13:14 19° 236° (SW) 2,076 6.1 -13.7°
Maximum altitude 04:16:08 26° 198° (SSW) 1,770 6.0 -13.1°
Drops below altitude 10° 04:21:22 10° 145° (SE) 2,717 7.5 -12.2°
Sets 04:24:33 0° 133° (SE) 3,710 8.3 -11.6°
